EW5449 Weather Reports


Display with metric or nautical units.
time (UTC)temp
F
wind
direction
speed
MPH
gust
MPH
rain 1hr
in
rain 24hr
in
rain mn
in
humidity
%
barometer
mb
20260903063054 74 160 0.0 2.0 0.00 0.00 0.00 87 1014.6
20260903061553 74 161 0.0 2.0 0.00 0.00 0.00 87 1014.8
20260903060059 74 158 0.0 2.0 0.00 0.00 0.00 86 1014.9
20260903054550 75 157 0.0 2.0 0.00 0.00 0.00 86 1015.0
20260903053050 75 154 0.0 2.0 0.00 0.00 0.00 86 1015.2
20260903051607 75 176 0.0 2.0 0.00 0.00 0.00 86 1015.2
20260903050051 75 162 0.0 2.0 0.00 0.00 0.00 85 1015.2
20260903044545 75 188 0.0 2.0 0.00 0.00 0.00 86 1015.4
20260903043139 75 176 0.0 2.0 0.00 0.00 0.00 86 1015.5
20260903041541 75 175 0.0 2.0 0.00 0.00 0.00 86 1015.5
20260903040038 75 175 0.0 2.0 0.00 0.00 0.00 87 1015.6
20260903034541 75 175 0.0 2.0 0.00 0.00 0.00 87 1015.6
20260903033036 75 178 0.0 2.0 0.00 0.00 0.00 87 1015.6
20260903031536 75 188 0.0 2.0 0.00 0.00 0.00 87 1015.6
20260903030036 75 176 0.0 2.0 0.00 0.00 0.00 86 1015.6
20260903024536 75 179 0.0 2.0 0.00 0.00 0.00 85 1015.6
20260903023035 75 181 0.0 2.0 0.00 0.00 0.00 84 1015.4
20260903021536 75 184 0.0 2.0 0.00 0.00 0.00 83 1015.3
20260903020033 75 171 0.0 2.0 0.00 0.00 0.00 82 1015.4
20260903014533 76 171 0.0 1.0 0.00 0.00 0.00 81 1015.5
20260903013035 76 168 0.0 2.0 0.00 0.00 0.00 81 1015.4
20260903011531 76 198 0.0 2.0 0.00 0.00 0.00 80 1015.4
20260903010030 76 119 0.0 1.0 0.00 0.00 0.00 79 1015.7
20260903004533 77 119 0.0 0.0 0.00 0.00 0.00 80 1015.8
20260903003029 77 119 0.0 0.0 0.00 0.00 0.00 79 1015.8
20260903001528 77 119 0.0 2.0 0.00 0.00 0.00 79 1015.8
20260903000027 77 119 0.0 0.0 0.00 0.00 0.00 78 1016.1
20260902234526 78 119 0.0 2.0 0.00 0.00 0.00 77 1016.3
20260902233026 78 119 0.0 2.0 0.00 0.00 0.00 76 1015.8
20260902231531 79 163 0.0 2.0 0.00 0.00 0.00 74 1015.8
20260902230025 80 127 0.0 3.0 0.00 0.00 0.00 72 1016.0
20260902224531 80 267 0.0 2.0 0.00 0.00 0.00 76 1016.0
20260902223026 80 273 0.0 2.0 0.00 0.00 0.00 77 1015.8
20260902221522 81 273 0.0 1.0 0.00 0.00 0.00 76 1015.6
20260902220021 82 259 0.0 2.0 0.00 0.00 0.00 73 1015.5
20260902214520 83 258 0.0 2.0 0.00 0.00 0.00 71 1015.6
20260902213019 83 259 0.0 1.0 0.00 0.00 0.00 68 1015.9
20260902211519 82 74 0.0 2.0 0.00 0.00 0.00 70 1016.0
20260902210021 82 101 0.0 2.0 0.00 0.00 0.00 71 1016.1
20260902204521 82 98 0.0 2.0 0.00 0.00 0.00 70 1016.0
20260902203020 82 51 0.0 2.0 0.00 0.00 0.00 70 1016.2
20260902201519 81 100 0.0 2.0 0.00 0.00 0.00 72 1016.2
20260902200026 79 336 0.0 3.0 0.00 0.00 0.00 75 1016.4
20260902194521 78 97 0.0 2.0 0.00 0.00 0.00 75 1016.8
20260902193015 78 262 0.0 2.0 0.00 0.00 0.00 77 1017.0
20260902191516 79 343 0.0 2.0 0.00 0.00 0.00 75 1017.0
20260902190027 78 336 0.0 6.0 0.00 0.00 0.00 76 1016.0
20260902184517 78 333 1.0 5.0 0.00 0.00 0.00 75 1016.7
20260902183013 80 348 1.0 8.0 0.00 0.00 0.00 74 1017.0
20260902181512 82 290 1.0 6.0 0.00 0.00 0.00 71 1016.5
20260902180010 90 338 3.0 9.0 0.00 0.00 0.00 57 1016.3
20260902174509 95 341 0.0 3.0 0.00 0.00 0.00 54 1015.4
20260902173008 95 346 0.0 3.0 0.00 0.00 0.00 51 1016.2
20260902171505 95 113 0.0 2.0 0.00 0.00 0.00 51 1016.3
20260902170001 94 182 1.0 3.0 0.00 0.00 0.00 50 1016.5
20260902164559 93 202 0.0 4.0 0.00 0.00 0.00 53 1016.6
20260902163101 93 342 1.0 5.0 0.00 0.00 0.00 54 1016.7
20260902161555 93 175 0.0 3.0 0.00 0.00 0.00 54 1016.7
20260902160055 91 206 0.0 2.0 0.00 0.00 0.00 58 1016.7
20260902154550 91 183 0.0 2.0 0.00 0.00 0.00 56 1016.7
20260902153047 91 205 0.0 2.0 0.00 0.00 0.00 57 1016.7
20260902151544 89 183 0.0 2.0 0.00 0.00 0.00 61 1016.7
20260902150039 87 186 0.0 2.0 0.00 0.00 0.00 62 1016.7
20260902144536 86 190 0.0 3.0 0.00 0.00 0.00 64 1016.7
20260902143033 85 130 0.0 2.0 0.00 0.00 0.00 67 1016.8
20260902141536 84 132 0.0 2.0 0.00 0.00 0.00 69 1016.7
20260902140026 82 184 0.0 2.0 0.00 0.00 0.00 71 1016.7
20260902134522 81 186 0.0 2.0 0.00 0.00 0.00 73 1016.9
20260902133018 79 184 0.0 2.0 0.00 0.00 0.00 75 1016.7
20260902131521 78 186 0.0 2.0 0.00 0.00 0.00 77 1016.8
20260902130013 77 157 0.0 2.0 0.00 0.00 0.00 78 1017.0
20260902124512 76 171 0.0 2.0 0.00 0.00 0.00 80 1016.7
20260902123011 75 178 0.0 2.0 0.00 0.00 0.00 81 1016.8
20260902121511 75 259 0.0 2.0 0.00 0.00 0.00 82 1016.7
20260902120010 74 281 0.0 0.0 0.00 0.00 0.00 83 1016.7
20260902114518 74 281 0.0 2.0 0.00 0.00 0.00 84 1016.7
20260902113010 74 281 0.0 0.0 0.00 0.00 0.00 84 1016.6
20260902111508 74 281 0.0 2.0 0.00 0.00 0.00 84 1016.7
20260902110013 74 184 0.0 2.0 0.00 0.00 0.00 86 1016.6
20260902104507 74 184 0.0 2.0 0.00 0.00 0.00 86 1016.5
20260902103007 73 184 0.0 2.0 0.00 0.00 0.00 86 1016.7
20260902101503 73 184 0.0 0.0 0.00 0.00 0.00 86 1016.6
20260902100004 74 184 0.0 0.0 0.00 0.00 0.00 86 1016.5
20260902094501 74 184 0.0 2.0 0.00 0.00 0.00 85 1016.4
20260902093100 74 184 0.0 0.0 0.00 0.00 0.00 83 1016.5
20260902091559 74 184 0.0 0.0 0.00 0.00 0.00 82 1016.3
20260902090107 74 184 0.0 0.0 0.00 0.00 0.00 81 1016.4
20260902084559 75 184 0.0 2.0 0.00 0.00 0.00 81 1016.3
20260902083054 75 184 0.0 0.0 0.00 0.00 0.00 80 1016.4
20260902081553 75 184 0.0 0.0 0.00 0.00 0.00 80 1016.2
20260902080104 75 184 0.0 0.0 0.00 0.00 0.00 79 1016.2
20260902074550 75 184 0.0 0.0 0.00 0.00 0.00 79 1016.1
20260902073055 75 184 0.0 0.0 0.00 0.00 0.00 78 1016.0
20260902071554 76 184 0.0 0.0 0.00 0.00 0.00 78 1016.0
20260902070050 76 184 0.0 0.0 0.00 0.00 0.00 77 1015.9
20260902064551 76 184 0.0 2.0 0.00 0.00 0.00 76 1016.1